Location: Lombard
(41.8800°N, 88.0080°W)
Time: 03:31:29
(UTC-05:00)

BEESAT - Pass Details

Date: 18 May 2022
Orbit: 698 x 708 km, 98.6° (Epoch: 26 June)

Event Time Altitude Azimuth Distance (km) Brightness Sun altitude
Rises 21:16:19 0° 12° (NNE) 3,095 ? -11.3°
Reaches altitude 10° 21:18:35 10° 12° (NNE) 2,171 ? -11.6°
Maximum altitude 21:23:20 83° 286° (WNW) 710 ? -12.3°
Drops below altitude 10° 21:28:03 10° 198° (SSW) 2,153 ? -12.9°
Sets 21:30:17 0° 197° (SSW) 3,066 ? -13.2°
